| time (UTC) | temp C | wind direction | speed KPH | gust KPH | rain 1hr cm | rain 24hr cm | rain mn cm | humidity % | barometer mb |
| 20260506154956 | 23 | 16 | 12.9 | 35.4 | 0.00 | 0.00 | 0.00 | 21 | 1010.8 |
| 20260506153448 | 21 | 353 | 20.9 | 37.0 | 0.00 | 0.00 | 0.00 | 21 | 1010.8 |
| 20260506151941 | 22 | 0 | 16.1 | 32.2 | 0.00 | 0.00 | 0.00 | 21 | 1010.7 |
| 20260506150434 | 21 | 357 | 20.9 | 37.0 | 0.00 | 0.00 | 0.00 | 21 | 1010.7 |
| 20260506144926 | 23 | 359 | 17.7 | 35.4 | 0.00 | 0.00 | 0.00 | 21 | 1010.7 |
| 20260506143419 | 21 | 0 | 20.9 | 38.6 | 0.00 | 0.00 | 0.00 | 21 | 1010.4 |
| 20260506141912 | 22 | 0 | 19.3 | 40.2 | 0.00 | 0.00 | 0.00 | 21 | 1010.5 |
| 20260506140405 | 21 | 1 | 22.5 | 35.4 | 0.00 | 0.00 | 0.00 | 21 | 1010.6 |
| 20260506134857 | 21 | 4 | 22.5 | 35.4 | 0.00 | 0.00 | 0.00 | 21 | 1010.3 |
| 20260506133350 | 22 | 344 | 20.9 | 33.8 | 0.00 | 0.00 | 0.00 | 21 | 1010.5 |
| 20260506131843 | 21 | 6 | 17.7 | 33.8 | 0.00 | 0.00 | 0.00 | 21 | 1010.6 |
| 20260506130336 | 22 | 349 | 17.7 | 35.4 | 0.00 | 0.00 | 0.00 | 21 | 1010.7 |
| 20260506124828 | 22 | 358 | 17.7 | 35.4 | 0.00 | 0.00 | 0.00 | 21 | 1010.6 |
| 20260506123321 | 22 | 345 | 16.1 | 35.4 | 0.00 | 0.00 | 0.00 | 21 | 1010.3 |
| 20260506121814 | 101 | 359 | 24.1 | 41.8 | 0.00 | 0.00 | 0.00 | 21 | 1011.5 |
| 20260506120306 | 22 | 2 | 19.3 | 35.4 | 0.00 | 0.00 | 0.00 | 21 | 1010.3 |
| 20260506114759 | 22 | 358 | 22.5 | 35.4 | 0.00 | 0.00 | 0.00 | 21 | 1010.2 |
| 20260506113252 | 22 | 1 | 19.3 | 35.4 | 0.00 | 0.00 | 0.00 | 21 | 1010.3 |
| 20260506111744 | 22 | 6 | 16.1 | 33.8 | 0.00 | 0.00 | 0.00 | 21 | 1010.3 |
| 20260506110237 | 21 | 14 | 17.7 | 35.4 | 0.00 | 0.00 | 0.00 | 21 | 1010.2 |
| 20260506104730 | 20 | 13 | 17.7 | 38.6 | 0.00 | 0.00 | 0.00 | 21 | 1010.3 |
| 20260506103222 | 21 | 7 | 17.7 | 35.4 | 0.00 | 0.00 | 0.00 | 21 | 1010.3 |
| 20260506101714 | 20 | 354 | 19.3 | 38.6 | 0.00 | 0.00 | 0.00 | 21 | 1010.1 |
| 20260506100207 | 20 | 17 | 19.3 | 35.4 | 0.00 | 0.00 | 0.00 | 21 | 1010.0 |
| 20260506094700 | 20 | 5 | 24.1 | 35.4 | 0.00 | 0.00 | 0.00 | 21 | 1009.9 |
| 20260506093152 | 19 | 0 | 19.3 | 35.4 | 0.00 | 0.00 | 0.00 | 21 | 1009.9 |
| 20260506084631 | 20 | 22 | 16.1 | 35.4 | 0.00 | 0.00 | 0.00 | 21 | 1009.9 |
| 20260506083123 | 20 | 16 | 17.7 | 35.4 | 0.00 | 0.00 | 0.00 | 21 | 1009.8 |
| 20260506081616 | 20 | 1 | 19.3 | 35.4 | 0.00 | 0.00 | 0.00 | 21 | 1009.6 |
| 20260506073054 | 20 | 19 | 16.1 | 35.4 | 0.00 | 0.00 | 0.00 | 21 | 1009.4 |
| 20260506071547 | 20 | 2 | 17.7 | 35.4 | 0.00 | 0.00 | 0.00 | 21 | 1009.3 |
| 20260506061518 | 20 | 359 | 20.9 | 32.2 | 0.00 | 0.00 | 0.00 | 21 | 1009.2 |
| 20260506044315 | 17 | 1 | 20.9 | 35.4 | 0.00 | 0.00 | 0.00 | 21 | 1008.8 |
| 20260506042722 | 18 | 7 | 14.5 | 41.8 | 0.00 | 0.00 | 0.00 | 21 | 1009.2 |
| 20260506041136 | 17 | 8 | 22.5 | 37.0 | 0.00 | 0.00 | 0.00 | 21 | 1009.2 |
| 20260506035544 | 17 | 7 | 24.1 | 40.2 | 0.00 | 0.00 | 0.00 | 21 | 1009.0 |
| 20260506033951 | 18 | 16 | 20.9 | 37.0 | 0.00 | 0.00 | 0.00 | 21 | 1009.2 |
| 20260506030816 | 18 | 0 | 20.9 | 35.4 | 0.00 | 0.00 | 0.00 | 21 | 1009.2 |
| 20260506025235 | 18 | 7 | 22.5 | 40.2 | 0.00 | 0.00 | 0.00 | 21 | 1009.2 |
| 20260506023654 | 18 | 0 | 20.9 | 37.0 | 0.00 | 0.00 | 0.00 | 21 | 1009.4 |
| 20260506022109 | 18 | 13 | 20.9 | 35.4 | 0.00 | 0.00 | 0.00 | 21 | 1009.3 |
| 20260506020534 | 18 | 12 | 24.1 | 37.0 | 0.00 | 0.00 | 0.00 | 21 | 1009.5 |
| 20260506014933 | 18 | 7 | 17.7 | 40.2 | 0.00 | 0.00 | 0.00 | 21 | 1009.5 |
| 20260506013450 | 18 | 13 | 16.1 | 43.5 | 0.00 | 0.00 | 0.00 | 21 | 1009.6 |
| 20260506013357 | 18 | 13 | 16.1 | 43.5 | 0.00 | 0.00 | 0.00 | 21 | 1009.6 |
| 20260506011801 | 18 | 8 | 24.1 | 41.8 | 0.00 | 0.00 | 0.00 | 21 | 1009.4 |
| 20260506010219 | 18 | 8 | 17.7 | 46.7 | 0.00 | 0.00 | 0.00 | 21 | 1009.7 |
| 20260506004642 | 18 | 10 | 22.5 | 38.6 | 0.00 | 0.00 | 0.00 | 21 | 1009.6 |
| 20260506003103 | 18 | 10 | 24.1 | 38.6 | 0.00 | 0.00 | 0.00 | 21 | 1009.8 |
| 20260506001526 | 17 | 12 | 20.9 | 37.0 | 0.00 | 0.00 | 0.00 | 21 | 1010.0 |
| 20260505235952 | 18 | 19 | 17.7 | 38.6 | 0.00 | 0.00 | 0.00 | 21 | 1009.9 |
| 20260505232847 | 18 | 19 | 20.9 | 35.4 | 0.00 | 0.00 | 0.00 | 21 | 1009.8 |
| 20260505231317 | 18 | 15 | 17.7 | 41.8 | 0.00 | 0.00 | 0.00 | 21 | 1009.9 |
| 20260505225758 | 18 | 21 | 22.5 | 41.8 | 0.00 | 0.00 | 0.00 | 21 | 1009.9 |
| 20260505224217 | 18 | 15 | 20.9 | 40.2 | 0.00 | 0.00 | 0.00 | 21 | 1010.0 |
| 20260505222638 | 18 | 17 | 24.1 | 41.8 | 0.00 | 0.00 | 0.00 | 21 | 1010.1 |
| 20260505221059 | 18 | 16 | 19.3 | 46.7 | 0.00 | 0.00 | 0.00 | 21 | 1010.2 |
| 20260505215531 | 18 | 15 | 24.1 | 46.7 | 0.00 | 0.00 | 0.00 | 21 | 1010.0 |
| 20260505214009 | 18 | 24 | 20.9 | 45.1 | 0.00 | 0.00 | 0.00 | 21 | 1010.0 |
| 20260505212444 | 19 | 10 | 19.3 | 45.1 | 0.00 | 0.00 | 0.00 | 21 | 1010.2 |
| 20260505210924 | 19 | 18 | 17.7 | 35.4 | 0.00 | 0.00 | 0.00 | 21 | 1010.1 |
| 20260505205407 | 18 | 21 | 25.7 | 48.3 | 0.00 | 0.00 | 0.00 | 21 | 1010.2 |
| 20260505203851 | 18 | 14 | 25.7 | 46.7 | 0.00 | 0.00 | 0.00 | 21 | 1010.0 |
| 20260505202338 | 18 | 16 | 30.6 | 51.5 | 0.00 | 0.00 | 0.00 | 21 | 1010.0 |
| 20260505200822 | 19 | 6 | 29.0 | 49.9 | 0.00 | 0.00 | 0.00 | 21 | 1010.0 |
| 20260505195309 | 18 | 16 | 24.1 | 48.3 | 0.00 | 0.00 | 0.00 | 21 | 1009.6 |
| 20260505193746 | 18 | 19 | 29.0 | 48.3 | 0.00 | 0.00 | 0.00 | 21 | 1009.6 |
| 20260505192231 | 19 | 20 | 25.7 | 53.1 | 0.00 | 0.00 | 0.00 | 21 | 1009.7 |
| 20260505190717 | 18 | 17 | 27.4 | 48.3 | 0.00 | 0.00 | 0.00 | 21 | 1009.5 |
| 20260505185205 | 18 | 10 | 27.4 | 48.3 | 0.00 | 0.00 | 0.00 | 21 | 1009.5 |
| 20260505183656 | 19 | 19 | 25.7 | 45.1 | 0.00 | 0.00 | 0.00 | 21 | 1009.2 |
| 20260505182147 | 20 | 3 | 24.1 | 51.5 | 0.00 | 0.00 | 0.00 | 21 | 1009.5 |
| 20260505180638 | 19 | 17 | 29.0 | 56.3 | 0.00 | 0.00 | 0.00 | 21 | 1009.3 |
| 20260505175129 | 19 | 23 | 27.4 | 49.9 | 0.00 | 0.00 | 0.00 | 21 | 1009.5 |
| 20260505173620 | 18 | 20 | 29.0 | 49.9 | 0.00 | 0.00 | 0.00 | 21 | 1009.2 |
| 20260505172113 | 18 | 19 | 24.1 | 53.1 | 0.00 | 0.00 | 0.00 | 21 | 1009.3 |
| 20260505170606 | 18 | 8 | 22.5 | 49.9 | 0.00 | 0.00 | 0.00 | 21 | 1009.3 |
| 20260505165059 | 20 | 16 | 25.7 | 49.9 | 0.00 | 0.00 | 0.00 | 21 | 1009.6 |
| 20260505163551 | 19 | 11 | 27.4 | 40.2 | 0.00 | 0.00 | 0.00 | 21 | 1009.5 |
| 20260505162044 | 20 | 10 | 24.1 | 41.8 | 0.00 | 0.00 | 0.00 | 21 | 1009.4 |
| 20260505160537 | 20 | 7 | 29.0 | 41.8 | 0.00 | 0.00 | 0.00 | 21 | 1009.5 |